| time (UTC) | temp F | wind direction | speed knots | gust knots | rain 1hr in | rain 24hr in | rain mn in | humidity % | barometer mb |
| 20260505192327 | 49 | 294 | 0.0 | 0.0 | 0.00 | 0.00 | 0.00 | 96 | 1022.6 |
| 20260505191329 | 49 | 294 | 0.0 | 0.0 | 0.00 | 0.00 | 0.00 | 96 | 1022.6 |
| 20260505190327 | 49 | 294 | 0.0 | 0.0 | 0.00 | 0.00 | 0.00 | 96 | 1022.6 |
| 20260505185331 | 49 | 294 | 0.0 | 0.0 | 0.00 | 0.00 | 0.00 | 96 | 1022.7 |
| 20260505184341 | 49 | 294 | 0.0 | 0.0 | 0.00 | 0.00 | 0.00 | 96 | 1022.7 |
| 20260505183345 | 49 | 294 | 0.0 | 0.0 | 0.00 | 0.00 | 0.00 | 95 | 1022.7 |
| 20260505182324 | 49 | 294 | 0.0 | 0.9 | 0.00 | 0.00 | 0.00 | 95 | 1022.8 |
| 20260505181324 | 49 | 294 | 0.0 | 0.0 | 0.00 | 0.00 | 0.00 | 95 | 1022.8 |
| 20260505180335 | 48 | 294 | 0.0 | 0.0 | 0.00 | 0.00 | 0.00 | 95 | 1022.8 |
| 20260505175356 | 48 | 294 | 0.0 | 0.0 | 0.00 | 0.00 | 0.00 | 95 | 1022.8 |
| 20260505174333 | 48 | 294 | 0.0 | 0.0 | 0.00 | 0.00 | 0.00 | 94 | 1022.9 |
| 20260505173323 | 49 | 294 | 0.0 | 0.0 | 0.00 | 0.00 | 0.00 | 94 | 1022.9 |
| 20260505172324 | 49 | 294 | 0.0 | 0.0 | 0.00 | 0.00 | 0.00 | 94 | 1023.0 |
| 20260505171411 | 48 | 294 | 0.0 | 0.0 | 0.00 | 0.00 | 0.00 | 93 | 1023.1 |
| 20260505170323 | 49 | 294 | 0.0 | 0.0 | 0.00 | 0.00 | 0.00 | 93 | 1022.9 |
| 20260505165327 | 49 | 294 | 0.0 | 0.0 | 0.00 | 0.00 | 0.00 | 92 | 1023.0 |
| 20260505164332 | 49 | 294 | 0.0 | 0.9 | 0.00 | 0.00 | 0.00 | 92 | 1022.9 |
| 20260505163324 | 49 | 294 | 0.0 | 0.0 | 0.00 | 0.00 | 0.00 | 91 | 1023.1 |
| 20260505162349 | 49 | 294 | 0.0 | 0.0 | 0.00 | 0.00 | 0.00 | 89 | 1023.1 |
| 20260505161324 | 50 | 294 | 0.0 | 0.0 | 0.00 | 0.00 | 0.00 | 88 | 1023.2 |
| 20260505160341 | 51 | 294 | 0.0 | 0.9 | 0.00 | 0.00 | 0.00 | 86 | 1023.3 |
| 20260505153339 | 54 | 294 | 0.0 | 0.9 | 0.00 | 0.00 | 0.00 | 80 | 1023.4 |
| 20260505152342 | 54 | 294 | 0.0 | 0.9 | 0.00 | 0.00 | 0.00 | 79 | 1023.4 |
| 20260505151333 | 56 | 288 | 0.0 | 4.3 | 0.00 | 0.00 | 0.00 | 76 | 1023.3 |
| 20260505150327 | 56 | 290 | 1.7 | 5.2 | 0.00 | 0.00 | 0.00 | 75 | 1023.4 |
| 20260505140405 | 57 | 294 | 0.9 | 5.2 | 0.00 | 0.00 | 0.00 | 72 | 1023.4 |
| 20260505124342 | 56 | 311 | 0.0 | 4.3 | 0.00 | 0.00 | 0.00 | 70 | 1023.2 |
| 20260505123334 | 56 | 301 | 1.7 | 4.3 | 0.00 | 0.00 | 0.00 | 70 | 1023.3 |
| 20260505122330 | 56 | 308 | 1.7 | 5.2 | 0.00 | 0.00 | 0.00 | 71 | 1023.3 |
| 20260505121333 | 55 | 318 | 0.9 | 3.5 | 0.00 | 0.00 | 0.00 | 73 | 1023.2 |
| 20260505120326 | 55 | 289 | 0.0 | 4.3 | 0.00 | 0.00 | 0.00 | 76 | 1023.1 |
| 20260505115334 | 54 | 304 | 0.9 | 3.5 | 0.00 | 0.00 | 0.00 | 80 | 1023.1 |
| 20260505114336 | 53 | 272 | 0.0 | 0.9 | 0.00 | 0.00 | 0.00 | 82 | 1023.0 |
| 20260505113330 | 54 | 272 | 0.0 | 0.9 | 0.00 | 0.00 | 0.00 | 81 | 1022.9 |
| 20260505112340 | 55 | 272 | 0.0 | 0.0 | 0.00 | 0.00 | 0.00 | 77 | 1022.8 |
| 20260505111334 | 57 | 272 | 0.0 | 1.7 | 0.00 | 0.00 | 0.00 | 74 | 1022.7 |
| 20260505110329 | 58 | 298 | 0.0 | 6.1 | 0.00 | 0.00 | 0.00 | 71 | 1022.6 |
| 20260505101340 | 59 | 300 | 1.7 | 6.1 | 0.00 | 0.00 | 0.00 | 65 | 1021.9 |
| 20260505100333 | 59 | 291 | 0.9 | 4.3 | 0.00 | 0.12 | 0.00 | 68 | 1021.8 |
| 20260505095357 | 59 | 277 | 0.9 | 3.5 | 0.00 | 0.12 | 0.00 | 67 | 1021.4 |
| 20260505094351 | 61 | 294 | 0.0 | 5.2 | 0.00 | 0.12 | 0.00 | 65 | 1021.3 |
| 20260505093334 | 61 | 296 | 2.6 | 6.1 | 0.00 | 0.12 | 0.00 | 65 | 1021.3 |
| 20260505092326 | 62 | 298 | 3.5 | 6.1 | 0.00 | 0.12 | 0.00 | 66 | 1021.2 |
| 20260505091343 | 62 | 297 | 3.5 | 7.8 | 0.00 | 0.12 | 0.00 | 64 | 1021.2 |
| 20260505090341 | 62 | 305 | 3.5 | 7.8 | 0.00 | 0.12 | 0.00 | 63 | 1021.1 |
| 20260505085331 | 63 | 301 | 5.2 | 9.6 | 0.00 | 0.12 | 0.00 | 62 | 1020.9 |
| 20260505084334 | 63 | 306 | 3.5 | 10.4 | 0.00 | 0.12 | 0.00 | 61 | 1020.8 |
| 20260505083348 | 63 | 294 | 3.5 | 7.8 | 0.00 | 0.12 | 0.00 | 64 | 1020.8 |
| 20260505082330 | 63 | 297 | 1.7 | 9.6 | 0.00 | 0.12 | 0.00 | 61 | 1020.8 |
| 20260505081353 | 64 | 306 | 4.3 | 10.4 | 0.00 | 0.12 | 0.00 | 61 | 1020.7 |
| 20260505080326 | 65 | 296 | 5.2 | 9.6 | 0.00 | 0.39 | 0.00 | 59 | 1020.8 |
| 20260505075350 | 66 | 272 | 4.3 | 9.6 | 0.00 | 0.39 | 0.00 | 59 | 1020.5 |
| 20260505074348 | 67 | 293 | 0.9 | 6.1 | 0.00 | 0.39 | 0.00 | 58 | 1020.4 |
| 20260505073403 | 67 | 319 | 0.0 | 3.5 | 0.00 | 0.39 | 0.00 | 60 | 1020.3 |
| 20260505072348 | 68 | 198 | 0.9 | 5.2 | 0.00 | 0.39 | 0.00 | 59 | 1020.1 |
| 20260505071337 | 67 | 298 | 0.9 | 6.1 | 0.00 | 0.39 | 0.00 | 55 | 1020.0 |
| 20260505070334 | 67 | 312 | 2.6 | 7.8 | 0.00 | 1.57 | 0.00 | 56 | 1020.0 |
| 20260505065341 | 66 | 303 | 2.6 | 7.8 | 0.00 | 1.57 | 0.00 | 55 | 1020.0 |
| 20260505064339 | 67 | 304 | 3.5 | 8.7 | 0.00 | 1.57 | 0.00 | 55 | 1019.9 |
| 20260505063352 | 67 | 342 | 0.9 | 4.3 | 0.00 | 1.57 | 0.00 | 57 | 1019.9 |
| 20260505062328 | 68 | 329 | 1.7 | 5.2 | 0.00 | 1.57 | 0.00 | 54 | 1020.0 |
| 20260505061325 | 68 | 279 | 0.9 | 3.5 | 0.00 | 1.57 | 0.00 | 53 | 1019.9 |
| 20260505060327 | 67 | 297 | 0.9 | 9.6 | 0.00 | 1.57 | 0.00 | 55 | 1019.8 |
| 20260505055322 | 68 | 277 | 2.6 | 6.1 | 0.00 | 1.57 | 0.00 | 54 | 1019.8 |
| 20260505054352 | 67 | 286 | 0.9 | 7.8 | 0.00 | 1.57 | 0.00 | 52 | 1019.7 |
| 20260505053331 | 68 | 276 | 0.9 | 7.0 | 0.00 | 1.57 | 0.00 | 52 | 1019.8 |
| 20260505052327 | 68 | 320 | 0.0 | 5.2 | 0.00 | 1.57 | 0.00 | 51 | 1019.8 |
| 20260505051347 | 68 | 293 | 0.9 | 3.5 | 0.00 | 1.57 | 0.00 | 50 | 1019.9 |
| 20260505050333 | 67 | 272 | 4.3 | 7.8 | 0.00 | 1.57 | 0.00 | 49 | 1019.9 |
| 20260505041353 | 67 | 349 | 0.9 | 6.1 | 0.00 | 1.57 | 0.00 | 48 | 1019.8 |
| 20260505040341 | 67 | 317 | 0.9 | 7.8 | 0.00 | 1.57 | 0.00 | 52 | 1020.2 |
| 20260505035400 | 67 | 350 | 1.7 | 5.2 | 0.00 | 1.57 | 0.00 | 53 | 1020.2 |
| 20260505034348 | 66 | 143 | 2.6 | 6.1 | 0.00 | 1.57 | 0.00 | 50 | 1020.0 |
| 20260505033346 | 66 | 284 | 1.7 | 7.8 | 0.00 | 1.57 | 0.00 | 51 | 1020.1 |
| 20260505032347 | 67 | 306 | 1.7 | 7.8 | 0.00 | 1.57 | 0.00 | 53 | 1020.0 |
| 20260505031323 | 67 | 1 | 1.7 | 6.1 | 0.00 | 1.57 | 0.00 | 48 | 1020.2 |
| 20260505030328 | 67 | 331 | 2.6 | 7.0 | 0.00 | 1.57 | 0.00 | 49 | 1020.2 |
| 20260505025351 | 67 | 283 | 0.9 | 4.3 | 0.00 | 1.57 | 0.00 | 51 | 1020.0 |
| 20260505024337 | 66 | 221 | 2.6 | 8.7 | 0.00 | 1.57 | 0.00 | 51 | 1020.2 |
| 20260505023354 | 66 | 214 | 1.7 | 7.0 | 0.00 | 1.57 | 0.00 | 52 | 1020.3 |
| 20260505022329 | 67 | 295 | 1.7 | 4.3 | 0.00 | 1.57 | 0.00 | 49 | 1020.1 |
| 20260505021331 | 67 | 288 | 0.9 | 5.2 | 0.00 | 1.57 | 0.00 | 52 | 1020.2 |
| 20260505020325 | 66 | 286 | 1.7 | 6.1 | 0.00 | 1.61 | 0.00 | 48 | 1020.1 |
| 20260505015349 | 66 | 126 | 0.0 | 4.3 | 0.00 | 1.61 | 0.00 | 51 | 1020.2 |
| 20260505014344 | 66 | 284 | 0.9 | 4.3 | 0.00 | 1.61 | 0.00 | 55 | 1020.3 |
| 20260505013337 | 64 | 331 | 1.7 | 7.8 | 0.00 | 1.61 | 0.00 | 56 | 1020.1 |
| 20260505012341 | 64 | 272 | 1.7 | 6.1 | 0.00 | 1.61 | 0.00 | 51 | 1020.1 |
| 20260505011332 | 65 | 286 | 1.7 | 4.3 | 0.00 | 1.61 | 0.00 | 56 | 1019.8 |
| 20260505010327 | 64 | 308 | 1.7 | 3.5 | 0.00 | 2.17 | 0.00 | 50 | 1019.9 |
| 20260505005350 | 65 | 273 | 1.7 | 6.1 | 0.00 | 2.17 | 0.00 | 55 | 1019.8 |
| 20260505004346 | 65 | 321 | 0.9 | 2.6 | 0.00 | 2.17 | 0.00 | 54 | 1019.8 |
| 20260505003336 | 65 | 268 | 0.9 | 5.2 | 0.00 | 2.17 | 0.00 | 56 | 1019.6 |
| 20260505002338 | 66 | 313 | 0.9 | 4.3 | 0.00 | 2.17 | 0.00 | 51 | 1019.7 |
| 20260505001333 | 66 | 302 | 0.9 | 2.6 | 0.00 | 2.17 | 0.00 | 49 | 1019.6 |
| 20260505000327 | 65 | 289 | 1.7 | 5.2 | 0.00 | 2.32 | 0.00 | 49 | 1019.4 |
| 20260504235332 | 65 | 304 | 0.0 | 3.5 | 0.00 | 2.32 | 0.00 | 59 | 1019.3 |
| 20260504234330 | 64 | 291 | 0.0 | 5.2 | 0.00 | 2.32 | 0.00 | 56 | 1019.4 |
| 20260504233333 | 63 | 258 | 0.0 | 2.6 | 0.00 | 2.32 | 0.00 | 57 | 1019.4 |
| 20260504232329 | 63 | 251 | 0.9 | 3.5 | 0.00 | 2.32 | 0.00 | 59 | 1019.1 |
| 20260504231413 | 62 | 241 | 0.0 | 4.3 | 0.00 | 2.32 | 0.00 | 53 | 1019.1 |
| 20260504230326 | 61 | 295 | 0.9 | 5.2 | 0.00 | 2.48 | 0.00 | 54 | 1019.0 |
| 20260504225349 | 61 | 344 | 0.9 | 3.5 | 0.00 | 2.48 | 0.00 | 54 | 1019.0 |
| 20260504224342 | 60 | 251 | 0.0 | 2.6 | 0.00 | 2.48 | 0.00 | 60 | 1018.8 |
| 20260504223338 | 60 | 298 | 0.0 | 3.5 | 0.00 | 2.48 | 0.00 | 65 | 1018.7 |
| 20260504222338 | 58 | 298 | 0.0 | 1.7 | 0.00 | 2.48 | 0.00 | 62 | 1018.7 |
| 20260504221338 | 56 | 251 | 0.0 | 0.9 | 0.00 | 2.48 | 0.00 | 67 | 1018.5 |
| 20260504220342 | 55 | 283 | 0.0 | 3.5 | 0.00 | 3.11 | 0.00 | 67 | 1018.6 |
| 20260504215338 | 53 | 251 | 0.0 | 1.7 | 0.00 | 3.11 | 0.00 | 69 | 1018.4 |
| 20260504214413 | 52 | 268 | 0.0 | 2.6 | 0.00 | 3.11 | 0.00 | 73 | 1018.1 |
| 20260504213323 | 49 | 291 | 0.0 | 0.9 | 0.00 | 3.11 | 0.00 | 83 | 1018.0 |
| 20260504212334 | 48 | 291 | 0.0 | 0.9 | 0.00 | 3.11 | 0.00 | 88 | 1018.1 |
| 20260504211334 | 47 | 291 | 0.0 | 0.9 | 0.00 | 3.11 | 0.00 | 90 | 1018.0 |
| 20260504210343 | 46 | 291 | 0.0 | 0.9 | 0.00 | 3.19 | 0.00 | 91 | 1017.8 |
| 20260504205323 | 45 | 291 | 0.0 | 0.9 | 0.00 | 3.19 | 0.00 | 92 | 1017.7 |
| 20260504204337 | 45 | 291 | 0.0 | 0.0 | 0.00 | 3.19 | 0.00 | 93 | 1017.5 |
| 20260504203339 | 45 | 291 | 0.0 | 0.9 | 0.00 | 3.19 | 0.00 | 92 | 1017.3 |
| 20260504202350 | 44 | 291 | 0.0 | 0.9 | 0.00 | 3.19 | 0.00 | 92 | 1017.2 |
| 20260504201330 | 44 | 291 | 0.0 | 0.9 | 0.00 | 3.19 | 0.00 | 92 | 1017.0 |
| 20260504200330 | 44 | 291 | 0.0 | 0.9 | 0.00 | 3.27 | 0.00 | 90 | 1016.7 |
| 20260504195347 | 44 | 291 | 0.0 | 0.9 | 0.00 | 3.27 | 0.00 | 91 | 1016.4 |
| 20260504194336 | 45 | 291 | 0.0 | 0.9 | 0.00 | 3.27 | 0.00 | 90 | 1016.1 |
| 20260504193333 | 45 | 291 | 0.0 | 0.9 | 0.00 | 3.27 | 0.00 | 90 | 1015.9 |